Location: Rio Tanui
(39.9167°N, 8.5167°E)
Time: 02:00:24
(UTC+00:00)

Cosmos 1943 Rocket - Pass Details

Date: 08 February 2023
Orbit: 811 x 844 km, 71.0° (Epoch: 01 April)

Event Time Altitude Azimuth Distance (km) Brightness Sun altitude
Rises 19:02:09 0° 345° (NNW) 3,409 5.6 -25.1°
Reaches altitude 10° 19:04:56 10° 356° (N) 2,468 4.7 -25.7°
Enters shadow 19:07:05 20° 13° (NNE) 1,849 3.8 -26.1°
